• In Netherlands
  • List of Countries
  • For 7 days
  • Water Temperature
  • Satellite Maps
  • Weather Map
  • Weather Widgets
  • user-avatar
    Login

    Hourly Weather Hotinlahti

    Today, 16 July, Monday

    Time Temperature Precipitation Wind Pressure Humidity
    00:00 +21°C° 0 mm 1 mps 759 mmHg 62%
    01:00 +21°C° 0 mm 1 mps 759 mmHg 63%
    02:00 +19°C° 0 mm 2 mps 759 mmHg 64%
    03:00 +19°C° 0 mm 2 mps 759 mmHg 64%
    04:00 +19°C° 0 mm 2 mps 759 mmHg 65%
    05:00 +19°C° 0 mm 2 mps 760 mmHg 65%
    06:00 +21°C° 0 mm 2 mps 760 mmHg 60%
    07:00 +24°C° 0 mm 1 mps 760 mmHg 55%
    08:00 +27°C° 0 mm 1 mps 760 mmHg 48%
    09:00 +28°C° 0 mm 1 mps 760 mmHg 43%
    10:00 +29°C° 0 mm 1 mps 760 mmHg 39%
    11:00 +30°C° 0 mm 1 mps 760 mmHg 34%
    12:00 +30°C° 0 mm 1 mps 760 mmHg 34%
    13:00 +31°C° 0 mm 1 mps 760 mmHg 32%
    14:00 +31°C° 0 mm 1 mps 760 mmHg 32%
    15:00 +31°C° 0 mm 1 mps 760 mmHg 32%
    16:00 +31°C° 0 mm 1 mps 760 mmHg 33%
    17:00 +31°C° 0 mm 2 mps 760 mmHg 33%
    18:00 +29°C° 0 mm 1 mps 760 mmHg 40%
    19:00 +27°C° 0 mm 1 mps 760 mmHg 47%
    20:00 +26°C° 0 mm 1 mps 760 mmHg 53%
    21:00 +25°C° 0 mm 2 mps 760 mmHg 56%
    22:00 +23°C° 0 mm 2 mps 760 mmHg 59%
    23:00 +21°C° 0 mm 2 mps 761 mmHg 62%

    Tomorrow, 17 July, Tuesday

    Time Temperature Precipitation Wind Pressure Humidity
    00:00 +21°C° 0 mm 2 mps 761 mmHg 63%
    01:00 +20°C° 0 mm 2 mps 761 mmHg 64%
    02:00 +20°C° 0 mm 2 mps 761 mmHg 66%
    03:00 +20°C° 0 mm 2 mps 761 mmHg 66%
    04:00 +20°C° 0 mm 2 mps 761 mmHg 66%
    05:00 +20°C° 0 mm 2 mps 762 mmHg 66%
    06:00 +23°C° 0 mm 2 mps 762 mmHg 60%
    07:00 +25°C° 0 mm 2 mps 762 mmHg 55%
    08:00 +27°C° 0 mm 2 mps 762 mmHg 49%
    09:00 +28°C° 0 mm 2 mps 762 mmHg 44%
    10:00 +29°C° 0 mm 2 mps 762 mmHg 40%
    11:00 +31°C° 0 mm 2 mps 762 mmHg 35%
    12:00 +31°C° 0 mm 2 mps 761 mmHg 35%
    13:00 +31°C° 0 mm 2 mps 761 mmHg 36%
    14:00 +30°C° 0 mm 2 mps 761 mmHg 36%
    15:00 +30°C° 0 mm 2 mps 761 mmHg 38%
    16:00 +30°C° 0 mm 3 mps 761 mmHg 41%
    17:00 +29°C° 0 mm 3 mps 761 mmHg 43%
    18:00 +28°C° 0 mm 3 mps 761 mmHg 47%
    19:00 +27°C° 0 mm 3 mps 761 mmHg 52%
    20:00 +26°C° 0 mm 3 mps 761 mmHg 56%
    21:00 +25°C° 0 mm 3 mps 761 mmHg 57%
    22:00 +23°C° 0 mm 4 mps 761 mmHg 58%
    23:00 +22°C° 0 mm 4 mps 762 mmHg 58%

    Day after tomorrow, 18 July, Wednesday

    Time Temperature Precipitation Wind Pressure Humidity
    00:00 +21°C° 0 mm 4 mps 762 mmHg 61%
    01:00 +20°C° 0 mm 4 mps 762 mmHg 63%
    02:00 +19°C° 0 mm 4 mps 762 mmHg 66%
    03:00 +18°C° 0 mm 4 mps 762 mmHg 67%
    04:00 +18°C° 0 mm 4 mps 762 mmHg 68%
    05:00 +18°C° 0 mm 4 mps 762 mmHg 69%
    06:00 +20°C° 0 mm 4 mps 762 mmHg 64%
    07:00 +21°C° 0 mm 5 mps 762 mmHg 59%
    08:00 +23°C° 0 mm 5 mps 762 mmHg 54%
    09:00 +25°C° 0 mm 5 mps 761 mmHg 50%
    10:00 +26°C° 0 mm 5 mps 761 mmHg 45%
    11:00 +27°C° 0 mm 4 mps 761 mmHg 41%
    12:00 +27°C° 0 mm 4 mps 761 mmHg 39%
    13:00 +28°C° 0 mm 4 mps 760 mmHg 37%
    14:00 +29°C° 0 mm 4 mps 760 mmHg 35%
    15:00 +29°C° 0 mm 4 mps 760 mmHg 36%
    16:00 +28°C° 0 mm 4 mps 760 mmHg 36%
    17:00 +28°C° 0 mm 4 mps 759 mmHg 37%
    18:00 +27°C° 0 mm 4 mps 759 mmHg 43%
    19:00 +25°C° 0 mm 3 mps 760 mmHg 50%
    20:00 +24°C° 0 mm 3 mps 760 mmHg 56%
    21:00 +22°C° 0 mm 3 mps 760 mmHg 58%
    22:00 +21°C° 0 mm 4 mps 760 mmHg 60%
    23:00 +20°C° 0 mm 4 mps 760 mmHg 62%

    19 July, Thursday

    Time Temperature Precipitation Wind Pressure Humidity
    00:00 +20°C° 0 mm 4 mps 760 mmHg 63%
    01:00 +19°C° 0 mm 4 mps 760 mmHg 65%
    02:00 +19°C° 0 mm 4 mps 760 mmHg 66%
    03:00 +19°C° 0 mm 4 mps 760 mmHg 68%
    04:00 +19°C° 0 mm 4 mps 760 mmHg 69%
    05:00 +19°C° 0 mm 4 mps 760 mmHg 70%
    06:00 +20°C° 0 mm 4 mps 760 mmHg 66%
    07:00 +22°C° 0 mm 4 mps 760 mmHg 61%
    08:00 +23°C° 0 mm 4 mps 760 mmHg 57%
    09:00 +26°C° 0 mm 4 mps 760 mmHg 52%
    10:00 +27°C° 0 mm 4 mps 759 mmHg 47%
    11:00 +28°C° 0 mm 4 mps 759 mmHg 42%
    12:00 +29°C° 0 mm 4 mps 759 mmHg 41%
    13:00 +29°C° 0 mm 4 mps 759 mmHg 40%
    14:00 +30°C° 0 mm 4 mps 758 mmHg 39%
    15:00 +30°C° 0 mm 4 mps 758 mmHg 40%
    16:00 +30°C° 0 mm 4 mps 758 mmHg 41%
    17:00 +30°C° 0 mm 4 mps 758 mmHg 42%
    18:00 +28°C° 0 mm 3 mps 758 mmHg 47%
    19:00 +27°C° 0 mm 3 mps 758 mmHg 53%
    20:00 +26°C° 0 mm 3 mps 758 mmHg 59%
    21:00 +25°C° 0 mm 3 mps 758 mmHg 59%
    22:00 +25°C° 0 mm 3 mps 758 mmHg 60%
    23:00 +25°C° 0 mm 4 mps 758 mmHg 61%

    20 July, Friday

    Time Temperature Precipitation Wind Pressure Humidity
    00:00 +23°C° 0 mm 4 mps 758 mmHg 62%
    01:00 +23°C° 0 mm 4 mps 758 mmHg 63%
    02:00 +22°C° 0 mm 4 mps 758 mmHg 64%
    03:00 +22°C° 0 mm 4 mps 758 mmHg 69%
    04:00 +21°C° 0 mm 4 mps 758 mmHg 73%
    05:00 +21°C° 0 mm 4 mps 757 mmHg 77%
    06:00 +22°C° 0 mm 4 mps 757 mmHg 72%
    07:00 +23°C° 0 mm 5 mps 757 mmHg 67%
    08:00 +25°C° 0 mm 5 mps 757 mmHg 62%
    09:00 +26°C° 0 mm 5 mps 757 mmHg 58%
    10:00 +27°C° 0 mm 4 mps 757 mmHg 53%
    11:00 +28°C° 0 mm 4 mps 757 mmHg 49%
    12:00 +28°C° 0 mm 4 mps 756 mmHg 50%
    13:00 +28°C° 0 mm 3 mps 756 mmHg 51%
    14:00 +28°C° 0 mm 3 mps 756 mmHg 52%
    15:00 +28°C° 0 mm 3 mps 756 mmHg 53%
    16:00 +27°C° 0 mm 3 mps 755 mmHg 54%
    17:00 +27°C° 0 mm 2 mps 755 mmHg 55%
    18:00 +26°C° 0.3 mm 2 mps 755 mmHg 61%
    19:00 +25°C° 0.3 mm 2 mps 755 mmHg 67%
    20:00 +24°C° 0.3 mm 1 mps 755 mmHg 73%
    21:00 +23°C° 0.7 mm 1 mps 755 mmHg 79%
    22:00 +22°C° 0.7 mm 1 mps 754 mmHg 85%
    23:00 +21°C° 0.7 mm 1 mps 754 mmHg 91%

    21 July, Saturday

    Time Temperature Precipitation Wind Pressure Humidity
    00:00 +19°C° 0.1 mm 2 mps 754 mmHg 93%
    01:00 +19°C° 0.1 mm 2 mps 754 mmHg 94%
    02:00 +19°C° 0.1 mm 2 mps 754 mmHg 95%
    03:00 +19°C° 0.1 mm 2 mps 754 mmHg 95%
    04:00 +19°C° 0.1 mm 3 mps 753 mmHg 95%
    05:00 +19°C° 0.1 mm 3 mps 753 mmHg 95%
    06:00 +20°C° 0 mm 3 mps 753 mmHg 92%
    07:00 +21°C° 0 mm 3 mps 753 mmHg 89%
    08:00 +22°C° 0 mm 3 mps 753 mmHg 86%
    09:00 +24°C° 0.2 mm 3 mps 752 mmHg 79%
    10:00 +25°C° 0.2 mm 3 mps 752 mmHg 73%
    11:00 +26°C° 0.2 mm 3 mps 752 mmHg 67%
    12:00 +26°C° 0.5 mm 3 mps 752 mmHg 67%
    13:00 +27°C° 0.5 mm 3 mps 751 mmHg 67%
    14:00 +27°C° 0.5 mm 3 mps 751 mmHg 66%
    15:00 +27°C° 0.1 mm 3 mps 751 mmHg 66%
    16:00 +27°C° 0.1 mm 3 mps 750 mmHg 66%
    17:00 +27°C° 0.1 mm 2 mps 750 mmHg 65%
    18:00 +26°C° 0.1 mm 2 mps 750 mmHg 71%
    19:00 +24°C° 0.1 mm 2 mps 750 mmHg 76%
    20:00 +23°C° 0.1 mm 2 mps 750 mmHg 82%
    21:00 +21°C° 0.4 mm 2 mps 750 mmHg 86%
    22:00 +20°C° 0.4 mm 2 mps 750 mmHg 90%
    23:00 +20°C° 0.4 mm 2 mps 750 mmHg 95%
    Show more